Weather in Verkhnyaya Kuenga

Russia / Zabaykalsky Krai     52°07′53″N   117°03′32″E
temp.,
°C
wind,
m/s
gust,
m/s
humid.,
%
clouds,
%
prec.,
mm/h
press.,
hPa
HPBL,
m
26 september, sun
sun2600:00+11e4973100 0.0 1016189
03:00+11ese51178100 0.2 1013270
06:00+12se51382100 0.3 1008498
09:00+12se51289100 2.3 1007581
12:00+14sse51088100 0.6 1005661
15:00+12sw3693100 1.8 1005256
18:00+10w4884100 1.0 1006409
21:00+7w6118185 1.2 1007473
27 september, mon
mon2700:00+4wsw51183100 0.0 1009327
03:00+4wsw7128356 0.0 1007562
06:00+3wsw713825 0.0 1007589
09:00+3sw812765 0.0 1008657
12:00+7wsw911525 0.0 10071126
15:00+10wsw912405 0.0 10051847
18:00+9wsw612480 0.0 1005454
21:00+4sw22615 0.0 100814
28 september, tue
tue2800:00+3ssw226742 0.0 100810
03:00+4ssw3366100 0.0 100856
06:00+4ssw2478100 0.1 1007104
09:00+5wsw358275 0.1 1007410
12:00+7wnw444970 0.0 10061011
15:00+9w4441100 0.0 10051736
18:00+8wnw475355 0.0 1006202
21:00+4w225832 0.0 100812
29 september, wed
wed2900:00+2wsw226562 0.0 100914
03:000sw347398 0.0 101083
06:00−1wsw35815 0.1 1011111
09:00+1wsw46695 0.1 1011327
12:00+5wsw4553100 0.0 10101183
15:00+7w4542100 0.1 10091813
18:00+5w465486 0.0 1009216
21:00+2sw366279 0.0 1010120
30 september, thu
thu3000:000sw22739 0.0 101115
03:00−1sw227655 0.0 101115
06:00−1wsw227852 0.0 101115
09:00+2wsw346598 0.0 1011265
12:00+6nw4647100 0.0 10091626
15:00+7wnw5747100 0.2 10081677
18:00+5wnw3551100 0.0 1007119
21:00+3wnw1159100 0.0 100811